Greenville, MS

11:00 AM CDT on September 26, 2017 (GMT -0500)
Mid Delta Regional

Weather History for KGLH - December, 2012

Change the Weather History Date:

Sunday, December 9, 2012

  Actual Average Record
Temperature  
Mean Temperature 67 °F 46 °F  
Max Temperature 73 °F 56 °F 82 °F (1943)
Min Temperature 61 °F 37 °F 14 °F (1937)
Degree Days  
Heating Degree Days 0 19  
Month to date heating degree days 21 163  
Since 1 July heating degree days 560 625  
Cooling Degree Days 2 0  
Month to date cooling degree days 7 0  
Year to date cooling degree days 2453 2186  
Growing Degree Days 16 (Base 50)    
Moisture  
Dew Point 63 °F    
Average Humidity 90    
Maximum Humidity 100    
Minimum Humidity 79    
Precipitation  
Precipitation 0.27 in 0.20 in 2.96 in (1966)
Month to date precipitation 1.04 1.83  
Year to date precipitation 37.29 48.85  
Sea Level Pressure  
Sea Level Pressure 29.87 in    
Wind  
Wind Speed 12 mph (SSW)    
Max Wind Speed 32 mph    
Max Gust Speed 39 mph    
Visibility 9 miles    
Events Rain , Thunderstorm    
T = Trace of Precipitation, MM = Missing Value Source: NWS Daily Summary

Daily Weather History Graph

Daily Weather History Graph

Search for Another Location

Airport or City:

Trip Planner

Search our weather history database for the weather conditions in past years. The results will help you decide how hot, cold, wet, or windy it might be!

Date:

Astronomy

Dec. 09, 2012 Rise Set
Actual Time 6:56 AM CST 4:56 PM CST
Civil Twilight 6:29 AM CST 5:23 PM CST
Nautical Twilight 5:58 AM CST 5:54 PM CST
Astronomical Twilight 5:28 AM CST 6:24 PM CST
Moon 2:38 AM CST (12/9) 1:55 PM CST (12/9)
Length of Visible Light 10h 54m
Length of Day
9h 59m
Waning Crescent, 18% of the Moon is Illuminated
Dec 9
Waning Crescent
Dec 13
New
Dec 19
First Quarter
Dec 28
Full
Jan 4
Last Quarter

Hourly Weather History & Observations

Time (CST) Temp. Dew Point Humidity Pressure Visibility Wind Dir Wind Speed Gust Speed Precip Events Conditions
4:53 AM 61.0 °F 60.1 °F 97% 29.91 in 10.0 mi South 9.2 mph - N/A   Overcast
5:53 AM 62.1 °F 59.0 °F 90% 29.93 in 10.0 mi South 11.5 mph - N/A   Mostly Cloudy
6:53 AM 61.0 °F 59.0 °F 93% 29.93 in 10.0 mi South 10.4 mph - N/A   Mostly Cloudy
8:51 AM 64.4 °F 60.8 °F 88% 29.93 in 10.0 mi South 12.7 mph - N/A   Mostly Cloudy
8:53 AM 64.0 °F 60.1 °F 87% 29.95 in 10.0 mi South 13.8 mph - N/A   Mostly Cloudy
9:02 AM 64.4 °F 60.8 °F 88% 29.93 in 10.0 mi South 12.7 mph - N/A   Mostly Cloudy
9:53 AM 69.1 °F 64.0 °F 84% 29.94 in 10.0 mi SSW 15.0 mph - N/A   Mostly Cloudy
10:25 AM 69.8 °F 64.4 °F 83% 29.92 in 10.0 mi SSW 12.7 mph 20.7 mph N/A   Mostly Cloudy
10:49 AM 71.6 °F 64.4 °F 78% 29.91 in 10.0 mi South 19.6 mph 25.3 mph N/A   Mostly Cloudy
10:53 AM 71.1 °F 66.0 °F 84% 29.93 in 10.0 mi South 18.4 mph - N/A   Mostly Cloudy
11:53 AM 72.0 °F 64.9 °F 78% 29.90 in 10.0 mi SSW 20.7 mph - N/A   Overcast
12:25 PM 71.6 °F 64.4 °F 78% 29.87 in 10.0 mi SSW 17.3 mph - N/A   Overcast
12:53 PM 70.0 °F 64.9 °F 84% 29.88 in 10.0 mi SSW 17.3 mph - N/A   Overcast
1:46 PM 69.8 °F 64.4 °F 83% 29.85 in 10.0 mi SSW 16.1 mph 26.5 mph N/A   Overcast
1:53 PM 71.1 °F 64.9 °F 81% 29.87 in 10.0 mi SSW 16.1 mph 24.2 mph N/A   Overcast
2:51 PM 71.6 °F 66.2 °F 83% 29.83 in 10.0 mi South 16.1 mph - N/A   Scattered Clouds
2:53 PM 72.0 °F 66.0 °F 81% 29.85 in 10.0 mi South 15.0 mph - N/A   Scattered Clouds
3:53 PM 71.6 °F 66.2 °F 83% 29.83 in 10.0 mi South 10.4 mph - N/A   Scattered Clouds
4:53 PM 69.1 °F 64.9 °F 87% 29.85 in 10.0 mi South 9.2 mph - N/A   Clear
5:53 PM 68.0 °F 64.9 °F 90% 29.83 in 10.0 mi South 10.4 mph - N/A   Clear
7:53 PM 68.0 °F 64.9 °F 90% 29.82 in 10.0 mi SSE 8.1 mph - N/A   Clear
8:53 PM 68.0 °F 64.9 °F 90% 29.81 in 10.0 mi South 6.9 mph - N/A   Clear
10:36 PM 68.0 °F 64.4 °F 88% 29.78 in 8.0 mi SSW 8.1 mph - 0.01 in Rain , Thunderstorm Light Rain
10:53 PM 68.0 °F 64.9 °F 90% 29.82 in 5.0 mi South 29.9 mph 35.7 mph 0.04 in Rain , Thunderstorm Thunderstorms and Rain
11:28 PM 62.6 °F 60.8 °F 94% 29.82 in 4.0 mi SW 17.3 mph 26.5 mph 0.10 in Rain , Thunderstorm Thunderstorms and Rain
11:53 PM 63.0 °F 60.1 °F 90% 29.83 in 5.0 mi SW 10.4 mph - 0.20 in Rain , Thunderstorm Thunderstorms and Rain